EW0184 Weather Reports


Display with metric or nautical units.
time (UTC)temp
F
wind
direction
speed
MPH
gust
MPH
rain 1hr
in
rain 24hr
in
rain mn
in
humidity
%
barometer
mb
20260904021126 85 15 0.0 1.0 0.00 0.00 0.00 39 1003.5
20260904020637 85 51 0.0 1.0 0.00 0.00 0.00 38 1003.4
20260904020131 85 51 0.0 2.0 0.00 0.00 0.00 38 1003.3
20260904015628 85 349 0.0 2.0 0.00 0.00 0.00 38 1003.3
20260904015135 85 123 0.0 2.0 0.00 0.00 0.00 37 1003.3
20260904014631 85 65 0.0 1.0 0.00 0.00 0.00 37 1003.2
20260904014137 86 102 0.0 1.0 0.00 0.00 0.00 37 1003.2
20260904013631 86 102 0.0 1.0 0.00 0.00 0.00 37 1003.2
20260904013125 86 103 0.0 1.0 0.00 0.00 0.00 37 1003.3
20260904012636 87 103 0.0 1.0 0.00 0.00 0.00 36 1003.2
20260904012132 87 113 0.0 1.0 0.00 0.00 0.00 36 1003.1
20260904011628 87 131 0.0 1.0 0.00 0.00 0.00 36 1003.2
20260904011137 88 1 0.0 1.0 0.00 0.00 0.00 35 1003.1
20260904010631 88 283 0.0 2.0 0.00 0.00 0.00 35 1003.1
20260904010127 88 288 0.0 2.0 0.00 0.00 0.00 35 1003.1
20260904005624 89 30 0.0 2.0 0.00 0.00 0.00 34 1003.0
20260904005134 89 54 0.0 3.0 0.00 0.00 0.00 34 1003.0
20260904004637 89 83 0.0 2.0 0.00 0.00 0.00 35 1002.8
20260904004129 89 67 0.0 2.0 0.00 0.00 0.00 35 1002.9
20260904003622 89 44 0.0 1.0 0.00 0.00 0.00 36 1002.9
20260904003137 89 44 0.0 1.0 0.00 0.00 0.00 36 1002.9
20260904002628 89 143 0.0 1.0 0.00 0.00 0.00 37 1002.8
20260904002124 89 155 0.0 0.0 0.00 0.00 0.00 38 1002.8
20260904001634 89 155 0.0 1.0 0.00 0.00 0.00 37 1002.8
20260904001130 89 166 0.0 1.0 0.00 0.00 0.00 40 1002.8
20260904000626 90 116 0.0 0.0 0.00 0.00 0.00 41 1002.8
20260904000134 91 116 0.0 0.0 0.00 0.00 0.00 39 1002.8
20260903235629 92 115 0.0 1.0 0.00 0.00 0.00 35 1002.8
20260903235137 92 116 0.0 1.0 0.00 0.00 0.00 31 1002.8
20260903234632 92 127 0.0 1.0 0.00 0.00 0.00 33 1002.7
20260903234125 92 113 0.0 1.0 0.00 0.00 0.00 33 1002.9
20260903233635 92 59 0.0 1.0 0.00 0.00 0.00 33 1002.8
20260903233131 93 72 0.0 1.0 0.00 0.00 0.00 32 1002.8
20260903232625 93 134 0.0 3.0 0.00 0.00 0.00 31 1002.8
20260903232138 94 205 0.0 3.0 0.00 0.00 0.00 32 1002.8
20260903231629 95 27 0.0 1.0 0.00 0.00 0.00 32 1002.8
20260903231128 95 26 0.0 2.0 0.00 0.00 0.00 31 1002.9
20260903230635 95 174 0.0 2.0 0.00 0.00 0.00 32 1002.9
20260903230130 95 108 0.0 2.0 0.00 0.00 0.00 31 1002.9
20260903225626 94 46 0.0 3.0 0.00 0.00 0.00 32 1002.9
20260903225132 93 42 0.0 5.0 0.00 0.00 0.00 34 1002.9
20260903224627 92 46 0.0 5.0 0.00 0.00 0.00 35 1003.0
20260903224123 91 91 0.0 2.0 0.00 0.00 0.00 35 1003.1
20260903223635 91 300 0.0 2.0 0.00 0.00 0.00 35 1003.2
20260903223128 91 71 0.0 3.0 0.00 0.00 0.00 35 1003.1
20260903222622 91 304 0.0 5.0 0.00 0.00 0.00 34 1003.2
20260903222133 92 111 0.0 5.0 0.00 0.00 0.00 34 1003.3
20260903221629 92 304 0.0 6.0 0.00 0.00 0.00 34 1003.2
20260903221136 92 245 1.0 6.0 0.00 0.00 0.00 33 1003.2
20260903220629 93 62 0.0 5.0 0.00 0.00 0.00 32 1003.2
20260903220124 94 329 0.0 2.0 0.00 0.00 0.00 33 1003.3
20260903215635 95 335 0.0 3.0 0.00 0.00 0.00 31 1003.2
20260903215130 96 92 0.0 3.0 0.00 0.00 0.00 29 1003.2
20260903214623 96 101 0.0 4.0 0.00 0.00 0.00 30 1003.3
20260903214022 97 57 0.0 4.0 0.00 0.00 0.00 30 1003.3
20260903213530 96 122 0.0 6.0 0.00 0.00 0.00 29 1003.4
20260903213032 96 257 0.0 3.0 0.00 0.00 0.00 31 1003.5
20260903212536 95 132 0.0 5.0 0.00 0.00 0.00 28 1003.5
20260903212031 95 358 1.0 7.0 0.00 0.00 0.00 30 1003.6
20260903211524 96 49 1.0 7.0 0.00 0.00 0.00 30 1003.6
20260903211035 96 47 0.0 5.0 0.00 0.00 0.00 31 1003.7
20260903210529 96 211 0.0 4.0 0.00 0.00 0.00 30 1003.8
20260903210025 95 326 0.0 4.0 0.00 0.00 0.00 33 1003.9
20260903205533 95 257 1.0 4.0 0.00 0.00 0.00 32 1004.1
20260903205026 94 315 1.0 7.0 0.00 0.00 0.00 31 1004.2
20260903204537 95 323 0.0 3.0 0.00 0.00 0.00 33 1004.2
20260903204032 95 333 1.0 5.0 0.00 0.00 0.00 32 1004.3
20260903203535 94 194 0.0 3.0 0.00 0.00 0.00 30 1004.3
20260903203036 94 104 0.0 2.0 0.00 0.00 0.00 31 1004.4
20260903202528 94 98 0.0 3.0 0.00 0.00 0.00 29 1004.4
20260903202033 93 150 0.0 3.0 0.00 0.00 0.00 32 1004.5
20260903201534 92 101 0.0 3.0 0.00 0.00 0.00 36 1004.6
20260903201034 92 148 0.0 2.0 0.00 0.00 0.00 39 1004.6
20260903200532 92 326 0.0 0.0 0.00 0.00 0.00 39 1004.7
20260903200125 91 326 0.0 0.0 0.00 0.00 0.00 43 1004.8
20260903195624 91 326 0.0 0.0 0.00 0.00 0.00 43 1004.8
20260903195134 91 328 0.0 2.0 0.00 0.00 0.00 40 1004.9
20260903194628 91 98 0.0 3.0 0.00 0.00 0.00 36 1005.0
20260903194137 91 108 0.0 3.0 0.00 0.00 0.00 37 1005.0
20260903193631 92 116 0.0 3.0 0.00 0.00 0.00 33 1005.1
20260903193124 93 108 1.0 3.0 0.00 0.00 0.00 32 1005.3
20260903192636 93 114 0.0 3.0 0.00 0.00 0.00 33 1005.3
20260903192130 94 129 0.0 3.0 0.00 0.00 0.00 29 1005.4
20260903191625 95 114 0.0 2.0 0.00 0.00 0.00 31 1005.5
20260903191132 95 260 0.0 2.0 0.00 0.00 0.00 35 1005.5
20260903190627 94 105 0.0 2.0 0.00 0.00 0.00 29 1005.7
20260903190121 95 152 0.0 2.0 0.00 0.00 0.00 33 1005.7
20260903185631 95 109 0.0 2.0 0.00 0.00 0.00 31 1005.9
20260903185126 94 162 0.0 4.0 0.00 0.00 0.00 32 1006.0
20260903184635 94 113 1.0 4.0 0.00 0.00 0.00 32 1006.1
20260903184131 94 112 0.0 2.0 0.00 0.00 0.00 34 1006.2
20260903183626 93 110 0.0 2.0 0.00 0.00 0.00 35 1006.4
20260903183141 92 252 0.0 2.0 0.00 0.00 0.00 36 1006.5
20260903182632 90 110 0.0 1.0 0.00 0.00 0.00 40 1006.6
20260903182124 89 115 0.0 1.0 0.00 0.00 0.00 40 1006.7
20260903181633 89 115 0.0 0.0 0.00 0.00 0.00 44 1006.8
20260903181130 90 116 0.0 0.0 0.00 0.00 0.00 43 1006.9
20260903180622 90 115 0.0 1.0 0.00 0.00 0.00 42 1006.9
20260903180133 90 115 0.0 1.0 0.00 0.00 0.00 42 1007.1
20260903175629 90 153 0.0 1.0 0.00 0.00 0.00 43 1007.2
20260903175124 90 150 0.0 1.0 0.00 0.00 0.00 40 1007.2
20260903174632 90 120 0.0 3.0 0.00 0.00 0.00 39 1007.2
20260903174126 91 119 1.0 3.0 0.00 0.00 0.00 37 1007.3
20260903173636 91 44 0.0 1.0 0.00 0.00 0.00 35 1007.3
20260903173130 90 43 0.0 1.0 0.00 0.00 0.00 37 1007.3
20260903172626 90 105 0.0 1.0 0.00 0.00 0.00 39 1007.4
20260903172135 90 73 0.0 2.0 0.00 0.00 0.00 37 1007.5
20260903171630 90 240 0.0 3.0 0.00 0.00 0.00 40 1007.3
20260903171039 89 34 0.0 3.0 0.00 0.00 0.00 38 1007.5
20260903170524 89 37 0.0 2.0 0.00 0.00 0.00 40 1007.5
20260903170036 89 106 0.0 2.0 0.00 0.00 0.00 42 1007.5
20260903165529 88 27 0.0 1.0 0.00 0.00 0.00 44 1007.5
20260903165023 89 100 0.0 1.0 0.00 0.00 0.00 43 1007.4
20260903164534 89 12 0.0 2.0 0.00 0.00 0.00 41 1007.5
20260903164028 89 115 0.0 4.0 0.00 0.00 0.00 41 1007.4
20260903163523 90 9 0.0 4.0 0.00 0.00 0.00 42 1007.5
20260903163033 90 34 0.0 3.0 0.00 0.00 0.00 42 1007.5
20260903162527 89 116 0.0 2.0 0.00 0.00 0.00 40 1007.5
20260903162021 88 116 0.0 2.0 0.00 0.00 0.00 42 1007.5
20260903161532 87 121 0.0 2.0 0.00 0.00 0.00 41 1007.5
20260903161023 87 98 0.0 2.0 0.00 0.00 0.00 45 1007.4
20260903160533 86 113 0.0 2.0 0.00 0.00 0.00 43 1007.4
20260903160032 86 133 0.0 1.0 0.00 0.00 0.00 48 1007.4
20260903155522 85 134 0.0 3.0 0.00 0.00 0.00 47 1007.4
20260903155023 84 232 0.0 4.0 0.00 0.00 0.00 51 1007.5
20260903154528 83 121 0.0 5.0 0.00 0.00 0.00 50 1007.6
20260903154024 83 141 1.0 5.0 0.00 0.00 0.00 51 1007.7
20260903153522 82 141 0.0 3.0 0.00 0.00 0.00 52 1007.9
20260903153022 82 212 0.0 3.0 0.00 0.00 0.00 54 1007.9
20260903152521 81 110 0.0 3.0 0.00 0.00 0.00 54 1007.8
20260903152025 81 139 0.0 2.0 0.00 0.00 0.00 55 1008.0
20260903151522 80 138 0.0 4.0 0.00 0.00 0.00 56 1008.0
20260903151021 80 217 0.0 3.0 0.00 0.00 0.00 56 1008.1
20260903150521 79 191 0.0 3.0 0.00 0.00 0.00 58 1008.1
20260903150112 78 133 0.0 3.0 0.00 0.00 0.00 59 1008.1
20260903145634 77 201 0.0 3.0 0.00 0.00 0.00 60 1008.1
20260903145127 76 212 0.0 3.0 0.00 0.00 0.00 61 1008.1
20260903144624 76 166 0.0 1.0 0.00 0.00 0.00 63 1008.2
20260903144133 76 118 0.0 1.0 0.00 0.00 0.00 61 1008.2
20260903143629 76 122 0.0 1.0 0.00 0.00 0.00 61 1008.1
20260903143124 75 131 0.0 1.0 0.00 0.00 0.00 63 1008.1
20260903142634 75 131 0.0 1.0 0.00 0.00 0.00 63 1008.2
20260903142131 74 229 0.0 1.0 0.00 0.00 0.00 64 1008.2
20260903141625 74 228 0.0 1.0 0.00 0.00 0.00 66 1008.3
20260903141120 74 119 0.0 1.0 0.00 0.00 0.00 65 1008.3
20260903140633 74 122 0.0 1.0 0.00 0.00 0.00 65 1008.2
20260903140128 74 122 0.0 1.0 0.00 0.00 0.00 65 1008.3
20260903135623 74 118 0.0 0.0 0.00 0.00 0.00 64 1008.2
20260903135134 74 120 0.0 1.0 0.00 0.00 0.00 65 1008.2
20260903134626 74 133 0.0 2.0 0.00 0.00 0.00 64 1008.1
20260903134123 74 114 0.0 2.0 0.00 0.00 0.00 64 1008.0
20260903133634 74 117 0.0 3.0 0.00 0.00 0.00 65 1008.1
20260903133129 73 117 0.0 3.0 0.00 0.00 0.00 64 1008.0
20260903132623 73 108 0.0 1.0 0.00 0.00 0.00 65 1008.1
20260903132122 74 108 0.0 1.0 0.00 0.00 0.00 64 1008.1
20260903131633 74 109 0.0 1.0 0.00 0.00 0.00 63 1008.0
20260903131128 73 118 0.0 1.0 0.00 0.00 0.00 63 1007.9
20260903130622 73 120 0.0 1.0 0.00 0.00 0.00 63 1008.0
20260903130133 73 126 0.0 3.0 0.00 0.00 0.00 63 1007.9
20260903125627 73 135 0.0 3.0 0.00 0.00 0.00 64 1007.8
20260903125123 73 127 0.0 2.0 0.00 0.00 0.00 64 1007.7
20260903124632 73 121 0.0 1.0 0.00 0.00 0.00 64 1007.7
20260903124128 73 121 0.0 1.0 0.00 0.00 0.00 64 1007.7
20260903123637 73 122 0.0 1.0 0.00 0.00 0.00 65 1007.6
20260903123131 73 138 0.0 0.0 0.00 0.00 0.00 65 1007.6
20260903122626 73 222 0.0 1.0 0.00 0.00 0.00 65 1007.6
20260903122135 73 222 0.0 1.0 0.00 0.00 0.00 65 1007.6
20260903121631 73 128 0.0 1.0 0.00 0.00 0.00 65 1007.5
20260903121128 73 172 0.0 3.0 0.00 0.00 0.00 65 1007.5
20260903120624 73 106 0.0 4.0 0.00 0.00 0.00 65 1007.5
20260903120131 73 187 0.0 3.0 0.00 0.00 0.00 65 1007.4
20260903115626 73 165 0.0 3.0 0.00 0.00 0.00 64 1007.3
20260903115138 73 214 0.0 1.0 0.00 0.00 0.00 64 1007.3
20260903114630 73 154 0.0 1.0 0.00 0.00 0.00 64 1007.2
20260903114123 73 156 0.0 1.0 0.00 0.00 0.00 63 1007.0
20260903113633 73 197 0.0 2.0 0.00 0.00 0.00 63 1006.9
20260903113152 73 135 0.0 2.0 0.00 0.00 0.00 63 1006.8
20260903112624 73 168 0.0 2.0 0.00 0.00 0.00 63 1006.7
20260903112132 74 209 0.0 2.0 0.00 0.00 0.00 63 1006.7
20260903111627 74 114 0.0 2.0 0.00 0.00 0.00 62 1006.7
20260903111122 74 167 0.0 0.0 0.00 0.00 0.00 62 1006.7
20260903110634 74 168 0.0 1.0 0.00 0.00 0.00 62 1006.7
20260903110129 74 167 0.0 1.0 0.00 0.00 0.00 61 1006.7
20260903105626 75 168 0.0 0.0 0.00 0.00 0.00 60 1006.7
20260903105121 75 168 0.0 1.0 0.00 0.00 0.00 59 1006.7
20260903104631 75 212 0.0 1.0 0.00 0.00 0.00 60 1006.7
20260903104122 75 290 0.0 4.0 0.00 0.00 0.00 60 1006.8
20260903103637 75 46 0.0 4.0 0.00 0.00 0.00 60 1006.8
20260903103131 74 323 0.0 2.0 0.00 0.00 0.00 61 1006.9
20260903102624 74 147 0.0 1.0 0.00 0.00 0.00 61 1006.8
20260903102133 74 195 0.0 1.0 0.00 0.00 0.00 60 1006.9
20260903101630 74 112 0.0 1.0 0.00 0.00 0.00 60 1006.9
20260903101127 74 101 0.0 1.0 0.00 0.00 0.00 59 1007.1
20260903100637 74 102 0.0 1.0 0.00 0.00 0.00 59 1007.1
20260903100131 74 102 0.0 3.0 0.00 0.00 0.00 59 1007.0
20260903095624 74 102 0.0 3.0 0.00 0.00 0.00 61 1007.1
20260903095133 73 102 0.0 3.0 0.00 0.00 0.00 61 1007.0
20260903094628 74 105 0.0 1.0 0.00 0.00 0.00 59 1006.9
20260903094123 75 105 0.0 0.0 0.00 0.00 0.00 58 1006.9
20260903093634 75 106 0.0 1.0 0.00 0.00 0.00 57 1006.9
20260903093133 75 114 0.0 3.0 0.00 0.00 0.00 57 1007.1
20260903092625 75 115 1.0 3.0 0.00 0.00 0.00 57 1007.0
20260903092138 75 79 0.0 4.0 0.00 0.00 0.00 58 1006.8
20260903091632 75 25 0.0 5.0 0.00 0.00 0.00 58 1006.8
20260903091126 74 103 0.0 1.0 0.00 0.00 0.00 58 1006.8
20260903090637 74 106 0.0 1.0 0.00 0.00 0.00 59 1006.8
20260903090129 75 136 0.0 1.0 0.00 0.00 0.00 58 1006.7
20260903085636 75 225 0.0 1.0 0.00 0.00 0.00 58 1006.7
20260903085130 75 275 0.0 1.0 0.00 0.00 0.00 56 1006.7
20260903084627 76 109 0.0 1.0 0.00 0.00 0.00 55 1006.5
20260903084125 76 52 0.0 0.0 0.00 0.00 0.00 54 1006.7
20260903083633 77 53 0.0 1.0 0.00 0.00 0.00 52 1006.5
20260903083136 78 53 0.0 3.0 0.00 0.00 0.00 51 1006.5
20260903082622 78 25 0.0 3.0 0.00 0.00 0.00 49 1006.4
20260903082134 78 103 0.0 3.0 0.00 0.00 0.00 49 1006.5
20260903081627 79 88 0.0 4.0 0.00 0.00 0.00 47 1006.6
20260903081125 79 75 0.0 5.0 0.00 0.00 0.00 45 1006.5
20260903080633 79 110 0.0 4.0 0.00 0.00 0.00 45 1006.4
20260903080128 79 87 0.0 5.0 0.00 0.00 0.00 44 1006.5
20260903075635 79 76 1.0 5.0 0.00 0.00 0.00 43 1006.4
20260903075131 79 121 0.0 3.0 0.00 0.00 0.00 43 1006.5
20260903074623 79 80 0.0 3.0 0.00 0.00 0.00 43 1006.5
20260903074134 79 354 0.0 1.0 0.00 0.00 0.00 43 1006.5
20260903073631 79 98 0.0 4.0 0.00 0.00 0.00 43 1006.4
20260903073126 78 158 0.0 2.0 0.00 0.00 0.00 44 1006.5
20260903072622 78 90 0.0 1.0 0.00 0.00 0.00 45 1006.5
20260903072134 79 90 0.0 0.0 0.00 0.00 0.00 44 1006.3
20260903071629 79 91 0.0 1.0 0.00 0.00 0.00 43 1006.2
20260903071137 80 91 0.0 1.0 0.00 0.00 0.00 42 1006.2
20260903070632 81 89 0.0 1.0 0.00 0.00 0.00 41 1006.2
20260903070128 81 123 0.0 2.0 0.00 0.00 0.00 39 1006.2
20260903065638 82 123 0.0 2.0 0.00 0.00 0.00 37 1006.1
20260903065131 82 172 0.0 1.0 0.00 0.00 0.00 36 1006.1
20260903064626 83 49 0.0 3.0 0.00 0.00 0.00 36 1006.1
20260903064122 83 69 0.0 4.0 0.00 0.00 0.00 36 1006.1
20260903063632 83 330 0.0 4.0 0.00 0.00 0.00 35 1006.2
20260903063128 83 98 0.0 5.0 0.00 0.00 0.00 35 1006.1
20260903062626 83 138 0.0 6.0 0.00 0.00 0.00 36 1006.2
20260903062134 84 30 0.0 6.0 0.00 0.00 0.00 35 1006.2
20260903061629 84 169 0.0 5.0 0.00 0.00 0.00 35 1006.2
20260903061138 84 290 0.0 3.0 0.00 0.00 0.00 36 1006.3
20260903060631 84 94 0.0 2.0 0.00 0.00 0.00 35 1006.3
20260903060126 84 40 0.0 3.0 0.00 0.00 0.00 35 1006.4
20260903055621 83 139 0.0 3.0 0.00 0.00 0.00 35 1006.5
20260903055133 83 108 0.0 3.0 0.00 0.00 0.00 35 1006.5
20260903054629 83 310 0.0 3.0 0.00 0.00 0.00 35 1006.6
20260903054125 83 193 0.0 3.0 0.00 0.00 0.00 37 1006.5
20260903053636 82 204 0.0 1.0 0.00 0.00 0.00 38 1006.5
20260903053134 81 319 0.0 2.0 0.00 0.00 0.00 38 1006.6
20260903052626 80 67 0.0 2.0 0.00 0.00 0.00 39 1006.6
20260903052137 80 110 0.0 1.0 0.00 0.00 0.00 41 1006.5
20260903051631 79 172 0.0 1.0 0.00 0.00 0.00 43 1006.5
20260903051126 77 82 0.0 1.0 0.00 0.00 0.00 47 1006.5
20260903050622 77 71 0.0 0.0 0.00 0.00 0.00 51 1006.5
20260903050132 77 71 0.0 1.0 0.00 0.00 0.00 50 1006.5
20260903045630 77 71 0.0 1.0 0.00 0.00 0.00 51 1006.6
20260903045123 77 72 0.0 0.0 0.00 0.00 0.00 53 1006.6
20260903044633 77 72 0.0 0.0 0.00 0.00 0.00 53 1006.6
20260903044129 77 72 0.0 0.0 0.00 0.00 0.00 52 1006.6
20260903043623 77 72 0.0 0.0 0.00 0.00 0.00 51 1006.6
20260903043211 78 72 0.0 0.0 0.00 0.00 0.00 50 1006.6
20260903042629 78 72 0.0 0.0 0.00 0.00 0.00 49 1006.5
20260903042137 79 72 0.0 0.0 0.00 0.00 0.00 48 1006.5
20260903041631 79 72 0.0 0.0 0.00 0.00 0.00 48 1006.4
20260903041126 79 72 0.0 0.0 0.00 0.00 0.00 47 1006.4
20260903040625 79 72 0.0 0.0 0.00 0.00 0.00 46 1006.3
20260903040136 79 72 0.0 0.0 0.00 0.00 0.00 46 1006.4
20260903035627 79 72 0.0 0.0 0.00 0.00 0.00 46 1006.3
20260903035125 79 72 0.0 0.0 0.00 0.00 0.00 46 1006.3
20260903034635 79 72 0.0 0.0 0.00 0.00 0.00 46 1006.3
20260903034132 79 72 0.0 0.0 0.00 0.00 0.00 46 1006.2
20260903033627 80 72 0.0 0.0 0.00 0.00 0.00 45 1006.2
20260903033121 80 72 0.0 0.0 0.00 0.00 0.00 45 1006.1
20260903032633 80 72 0.0 0.0 0.00 0.00 0.00 45 1006.1
20260903032125 80 72 0.0 0.0 0.00 0.00 0.00 45 1006.0
20260903031637 80 72 0.0 0.0 0.00 0.00 0.00 44 1006.0
20260903031132 80 72 0.0 0.0 0.00 0.00 0.00 44 1005.9
20260903030626 81 72 0.0 0.0 0.00 0.00 0.00 43 1005.8
20260903030136 81 72 0.0 0.0 0.00 0.00 0.00 43 1005.7
20260903025630 81 72 0.0 0.0 0.00 0.00 0.00 42 1005.6
20260903025125 81 72 0.0 0.0 0.00 0.00 0.00 42 1005.6
20260903024638 82 72 0.0 0.0 0.00 0.00 0.00 42 1005.5
20260903024132 82 72 0.0 0.0 0.00 0.00 0.00 41 1005.4
20260903023627 82 72 0.0 0.0 0.00 0.00 0.00 40 1005.4
20260903023139 82 72 0.0 0.0 0.00 0.00 0.00 40 1005.4
20260903022628 83 72 0.0 0.0 0.00 0.00 0.00 39 1005.3
20260903022122 83 72 0.0 0.0 0.00 0.00 0.00 38 1005.2
20260903021634 83 72 0.0 0.0 0.00 0.00 0.00 38 1005.2